Regional Weather Roundup
Issued by NWS

Home | Current Version | Previous Version | Graphics & Text | Print | Product List | Glossary On
Versions: 1 2 3 4 5 6 7 8 9 10 11 12 13 14 15 16 17 18 19 20 21 22 23 24 25 26 27 28 29 30 31 32 33 34 35 36 37 38 39 40 41 42 43 44 45 46 47 48 49 50
000
ASUS43 KIND 110109
RWRIN

WEATHER ROUNDUP FOR INDIANA
NATIONAL WEATHER SERVICE INDIANAPOLIS IN
900 PM EDT THU JUL 10 2014

NOTE: "FAIR" INDICATES FEW OR NO CLOUDS BELOW 12,000 FEET WITH NO
SIGNIFICANT WEATHER AND/OR OBSTRUCTIONS TO VISIBILITY.

* - STATION DOES NOT REPORT WEATHER SUCH AS PRECIPITATION OR FOG.

+ - STATION NOT QUALITY CONTROLLED BY THE NATIONAL WEATHER SERVICE.
    USE DATA WITH CAUTION...ESPECIALLY DEWPOINT AND RELATIVE
    HUMIDITY OBSERVATIONS.

INZ001>003-010>013-019-020-110200-
NORTHWEST INDIANA

CITY           SKY/WX    TMP DP  RH WIND       PRES   REMARKS
GARY /AIRPORT/ CLEAR     70  50  49 E5        30.16S
KNOX *+        CLEAR     68  57  67 CALM      30.15S
LA PORTE +     CLEAR     67  54  62 N5        30.17R
MICHIGAN CITY+ CLEAR     64  52  63 CALM      30.17S
MONTICELLO +   CLEAR     71  58  65 NE3       30.14S
RENSSELAER +   CLEAR     68  55  64 NE3       30.15S
VALPARAISO     CLEAR     68  52  56 CALM      30.16S

$$

LMZ046-743>745-110200-
SOUTHERN LAKE MICHIGAN

STATION/POSITION TIME  TEMP WIND        PRES
                       AIR  DIR/SP/G
                 (UTC) (F)  (DEG/KT/KT) (MB)
MICHIGAN CITY    0100   69   40/  8/  9   N/A

$$

INZ004-005-014>016-021>024-110200-
NORTH CENTRAL INDIANA

CITY           SKY/WX    TMP DP  RH WIND       PRES   REMARKS
ELKHART        CLEAR     72  50  46 CALM      30.17R
GOSHEN         CLEAR     73  52  47 CALM      30.16R
LOGANSPORT +   CLEAR     70  52  52 CALM      30.16R
PERU/GRISSOM   CLEAR     70  58  65 NE3       30.15S
ROCHESTER +    CLEAR     72  54  53 CALM      30.16S
SOUTH BEND     CLEAR     68  54  60 N7        30.16R
WARSAW +       CLEAR     70  55  60 CALM      30.16R

$$

INZ006>009-017-018-025>027-110200-
NORTHEAST INDIANA

CITY           SKY/WX    TMP DP  RH WIND       PRES   REMARKS
ANGOLA *+      CLEAR     70  57  64 CALM      30.16S
AUBURN +       CLEAR     70  52  52 CALM      30.17R
FORT WAYNE     CLEAR     72  52  49 NW3       30.16R
HUNTINGTON +   CLEAR     68  55  62 CALM      30.15S

$$

INZ028-029-035-036-043>045-051>053-110200-
WEST CENTRAL INDIANA

CITY           SKY/WX    TMP DP  RH WIND       PRES   REMARKS
GREENCASTLE +  CLEAR     70  54  56 N3        30.14S
LAFAYETTE      CLEAR     73  54  51 NE3       30.14S
TERRE HAUTE    CLEAR     71  58  63 N6        30.13R

$$

INZ030>032-037>040-046>048-054>057-064-065-110200-
CENTRAL INDIANA

CITY           SKY/WX    TMP DP  RH WIND       PRES   REMARKS
CP ATTERBURY + CLEAR     72  55  56 NE5       30.13S
COLUMBUS       CLEAR     72  61  68 N3        30.13R
INDIANAPOLIS   PTCLDY    73  51  46 N9        30.13R
-EAGLE CREEK   CLEAR     72  52  49 N7        30.13S
KOKOMO *+      CLEAR     70  55  60 NE3       30.15S
MARION +       CLEAR     69  54  59 CALM      30.16S
MT COMFORT *+  CLEAR     68  59  73 N6        30.14S
SHELBYVILLE    CLEAR     73  57  57 NE5       30.13R
ZIONSVILLE +   CLEAR     71  57  61 N5        30.16R

$$

INZ033-034-041-042-049-050-058-059-110200-
EAST CENTRAL INDIANA

CITY           SKY/WX    TMP DP  RH WIND       PRES   REMARKS
MUNCIE         CLEAR     71  56  58 N5        30.15R

$$

INZ060-061-067>069-081>083-085>088-110200-
SOUTHWEST INDIANA

CITY           SKY/WX    TMP DP  RH WIND       PRES   REMARKS
EVANSVILLE     CLEAR     80  58  46 N3        30.10R
HUNTINGBURG *+ CLEAR     75  57  53 NE6       30.11R
WASHINGTON +   CLEAR     72  64  75 N3        30.11R

$$

INZ062-063-066-070>080-084-089>092-110200-
SOUTH CENTRAL AND SOUTHEAST INDIANA

CITY           SKY/WX    TMP DP  RH WIND       PRES   REMARKS
BLOOMINGTON    CLEAR     73  57  57 N6        30.13R

$$




USA.gov is the U.S. government's official web portal to all federal, state and local government web resources and services.